[[{"header":{"parameterUnit":"m.s-1","parameterCategory":1,"la1":30.2991,"la2":30.254,"lo1":-89.0895,"lo2":-89.0444,"dy":0.0017,"dx":0.0017,"nx":28,"ny":28,"refTime":"2024-03-21T21:00:00:Z","depth":0,"parameterNumber":2,"parameterNumberName":"U-component_of_WINDS"},"data":[0,0,0,0,0,0,0,0,0,0,0,0,0,0,0,0,0,0,0,0,0,0,0,0,0,0,0,0,0,0,0,0,0,0,0,0,0,0,0,0,0,0,0,0,0,0,0,0,0,0,0,0,0,0,0,0,0,0,-0.9074,-0.9073,0,-0.8957,-0.8955,-0.8954,-0.8877,-0.8877,-0.8876,-0.8876,-0.8751,-0.8749,-0.8746,0,0,0,0,0,0,0,0,0,0,0,0,0,-0.9231,-0.9228,-0.9075,-0.9073,-0.9072,-0.8957,-0.8955,-0.8954,-0.8877,-0.8877,-0.8876,-0.8876,-0.8752,-0.8749,-0.8746,0,0,0,0,0,0,0,0,0,0,0,0,0,-0.9143,-0.9227,-0.9075,-0.902,-0.9014,-0.8957,-0.8955,-0.8953,-0.8877,-0.8877,-0.8876,-0.8875,-0.8754,-0.8749,-0.8745,-0.8733,0,0,-0.8732,-0.873,0,0,0,0,0,0,0,0,-0.9148,-0.9137,-0.9029,-0.9023,-0.9017,-0.8931,-0.8965,-0.8879,-0.8878,-0.8929,-0.8876,-0.8875,-0.8812,-0.8802,-0.8782,-0.8727,-0.8722,-0.8732,-0.8729,-0.8727,-0.8726,0,0,0,0,0,0,0,-0.9154,-0.9142,-0.9028,-0.9028,-0.902,-0.9,-0.8987,-0.8948,-0.8876,-0.8924,-0.8919,-0.8906,-0.8808,-0.8786,-0.8778,-0.872,-0.8732,-0.8728,-0.8725,-0.8724,-0.865,-0.8651,0,0,0,0,0,0,-0.9169,-0.9147,-0.9032,-0.9024,-0.9082,-0.8998,-0.8983,-0.8959,-0.8876,-0.8863,-0.8907,-0.8903,-0.8794,-0.8783,-0.8774,-0.8754,-0.8727,-0.8723,-0.8721,-0.865,-0.865,-0.8651,0,0,0,0,0,0,-0.9173,-0.916,-0.9036,-0.9084,-0.9067,-0.8996,-0.897,-0.8957,-0.8935,-0.8862,-0.8849,-0.8898,-0.8793,-0.878,-0.8744,-0.8749,-0.8721,-0.8717,-0.8649,-0.865,-0.8651,-0.8716,0,0,0,0,0,0,-0.9178,-0.9161,-0.9157,-0.9085,-0.9065,-0.901,-0.897,-0.8955,-0.8929,-0.8922,-0.8851,-0.8838,-0.8791,-0.8751,-0.874,-0.8743,-0.8714,-0.8648,-0.8649,-0.865,-0.8713,-0.8719,-0.8724,0,0,0,0,0,-0.9184,-0.9179,-0.9157,-0.9143,-0.9058,-0.901,-0.8999,-0.8946,-0.8929,-0.8924,-0.8877,-0.884,-0.8751,-0.8748,-0.8735,-0.8736,-0.8648,-0.8649,-0.865,-0.8711,-0.8718,-0.8724,0,0,0,0,0,0,-0.9252,-0.9168,-0.9143,-0.9115,-0.9071,-0.8997,-0.8988,-0.8955,-0.8913,-0.8909,-0.8845,-0.8829,-0.88,-0.8764,-0.8763,-0.8721,-0.8695,-0.8694,-0.8745,-0.8751,-0.8757,-0.8766,-0.871,0,0,0,0,0,-0.9264,-0.9233,-0.9162,-0.9144,-0.9123,-0.906,-0.9037,-0.9001,-0.8951,-0.8932,-0.8882,-0.8835,-0.8796,-0.8772,-0.8732,-0.8708,-0.8691,-0.8702,-0.8708,-0.8713,-0.8712,-0.8697,-0.8702,-0.8656,-0.8656,-0.8656,0,0,-0.9288,-0.9238,-0.9223,-0.9156,-0.9117,-0.9087,-0.9044,-0.9013,-0.899,-0.8927,-0.889,-0.8853,-0.8796,-0.8766,-0.8751,-0.8736,-0.8722,-0.8715,-0.8719,-0.8716,-0.8699,-0.8704,-0.8708,-0.8657,-0.8657,-0.8656,0,0,-0.9316,-0.9276,-0.9257,-0.9219,-0.9162,-0.912,-0.9116,-0.9048,-0.9021,-0.8984,-0.8936,-0.8906,-0.8841,-0.8802,-0.8774,-0.8789,-0.8754,-0.8778,-0.8807,-0.8793,-0.8796,-0.8799,-0.8805,-0.8807,-0.8778,-0.8778,-0.8778,0,-0.9352,-0.9305,-0.9251,-0.9223,-0.9195,-0.9138,-0.9119,-0.9084,-0.9016,-0.8998,-0.8982,-0.89,-0.8857,-0.8818,-0.8822,-0.8801,-0.8794,-0.8785,-0.8801,-0.8803,-0.8805,-0.8809,-0.8811,-0.8781,-0.8781,-0.8781,-0.878,0,-0.9353,-0.9321,-0.9313,-0.925,-0.9221,-0.9198,-0.9139,-0.9116,-0.9083,-0.9043,-0.9006,-0.8953,-0.8902,-0.889,-0.8856,-0.8846,-0.8839,-0.8813,-0.8785,-0.8813,-0.8816,-0.8818,-0.8786,-0.8785,-0.8784,-0.8783,0,0,-0.942,-0.9329,-0.9327,-0.9298,-0.9231,-0.9204,-0.9178,-0.913,-0.9111,-0.9067,-0.9043,-0.8989,-0.8965,-0.8933,-0.8895,-0.8883,-0.8898,-0.8858,-0.8856,-0.8867,-0.8884,-0.8905,-0.8907,-0.8875,-0.8875,-0.8875,-0.8889,0,-0.9438,-0.9389,-0.934,-0.9308,-0.9278,-0.9224,-0.9201,-0.9157,-0.912,-0.9088,-0.9045,-0.9008,-0.8979,-0.896,-0.8946,-0.89,-0.8901,-0.8898,-0.8851,-0.885,-0.8867,-0.8909,-0.893,-0.8945,-0.889,-0.889,-0.889,0,-0.9452,-0.9412,-0.9377,-0.9314,-0.9299,-0.928,-0.9232,-0.9202,-0.9151,-0.9125,-0.909,-0.905,-0.9019,-0.8996,-0.8952,-0.8951,-0.8929,-0.8904,-0.8903,-0.8896,-0.8872,-0.8903,-0.8949,-0.8952,-0.8892,-0.8892,-0.8892,0,-0.9504,-0.9441,-0.9413,-0.939,-0.9315,-0.9303,-0.9271,-0.9219,-0.9193,-0.9151,-0.9134,-0.9088,-0.9063,-0.9028,-0.8976,-0.8964,-0.8938,-0.891,-0.8914,-0.8916,-0.8911,-0.8912,-0.8954,-0.8897,-0.8897,-0.8897,-0.8897,0,-0.9529,-0.9511,-0.9435,-0.9418,-0.9395,-0.9339,-0.9318,-0.9281,-0.9236,-0.921,-0.916,-0.9136,-0.9069,-0.9037,-0.8997,-0.8967,-0.8956,-0.8933,-0.8922,-0.8937,-0.894,-0.8921,-0.8919,-0.8898,-0.8898,-0.8898,-0.8898,0,-0.9584,-0.9533,-0.9498,-0.9431,-0.9414,-0.94,-0.9342,-0.9323,-0.9283,-0.925,-0.9239,-0.9176,-0.9136,-0.9081,-0.9024,-0.8996,-0.8972,-0.8955,-0.899,-0.8983,-0.8991,-0.8991,-0.9022,-0.9023,-0.8967,-0.8967,-0.8968,0,-0.9603,-0.9588,-0.952,-0.9499,-0.947,-0.9437,-0.9411,-0.9355,-0.933,-0.9271,-0.9259,-0.9216,-0.9178,-0.9117,-0.9065,-0.9021,-0.9002,-0.9017,-0.8995,-0.9011,-0.9003,-0.9004,-0.9002,-0.9022,-0.9022,-0.9023,-0.9024,0,-0.9643,-0.9619,-0.9584,-0.9541,-0.9511,-0.9474,-0.9434,-0.942,-0.9355,-0.9329,-0.9289,-0.926,-0.9202,-0.916,-0.9109,-0.9075,-0.9039,-0.9031,-0.903,-0.9045,-0.9066,-0.9055,-0.9004,-0.903,-0.903,-0.9029,-0.9029,-0.9029,-0.968,-0.9665,-0.9615,-0.9577,-0.9542,-0.9506,-0.9485,-0.9443,-0.9409,-0.9359,-0.9327,-0.9288,-0.9238,-0.9166,-0.9134,-0.9102,-0.9088,-0.9086,-0.9085,-0.9085,-0.9091,-0.9071,-0.9093,-0.9093,-0.9092,-0.9092,-0.9092,0,-0.9718,-0.9684,-0.965,-0.9597,-0.9568,-0.9537,-0.9492,-0.9469,-0.9436,-0.9393,-0.9357,-0.9311,-0.927,-0.9216,-0.917,-0.9155,-0.9138,-0.9145,-0.9146,-0.9139,-0.9106,-0.9112,-0.9161,-0.9161,-0.9161,-0.9161,-0.9161,-0.9161,-0.9734,-0.9706,-0.9676,-0.963,-0.9594,-0.9557,-0.9534,-0.9501,-0.9466,-0.9417,-0.9383,-0.9349,-0.9301,-0.9252,-0.9213,-0.9198,-0.9183,-0.9196,-0.9176,-0.9147,-0.9141,-0.9135,-0.914,-0.9194,-0.9194,-0.9211,-0.9211,-0.9211]},{"header":{"parameterUnit":"m.s-1","parameterCategory":1,"la1":30.2991,"la2":30.254,"lo1":-89.0895,"lo2":-89.0444,"dy":0.0017,"dx":0.0017,"nx":28,"ny":28,"refTime":"2024-03-21T21:00:00:Z","depth":0,"parameterNumber":3,"parameterNumberName":"V-component_of_WINDS"},"data":[0,0,0,0,0,0,0,0,0,0,0,0,0,0,0,0,0,0,0,0,0,0,0,0,0,0,0,0,0,0,0,0,0,0,0,0,0,0,0,0,0,0,0,0,0,0,0,0,0,0,0,0,0,0,0,0,0,0,4.814,4.814,0,4.8127,4.8127,4.8127,4.8067,4.8066,4.8064,4.8063,4.805,4.8051,4.8052,0,0,0,0,0,0,0,0,0,0,0,0,0,4.811,4.8111,4.814,4.814,4.8139,4.8127,4.8127,4.8127,4.8067,4.8065,4.8064,4.8062,4.8049,4.805,4.8052,0,0,0,0,0,0,0,0,0,0,0,0,0,4.8113,4.8111,4.814,4.8108,4.8105,4.8127,4.8127,4.8127,4.8068,4.8065,4.8063,4.8061,4.8049,4.805,4.8052,4.8103,0,0,4.8056,4.8057,0,0,0,0,0,0,0,0,4.8113,4.8114,4.8113,4.811,4.8107,4.8096,4.8112,4.8119,4.8068,4.8082,4.8063,4.806,4.8067,4.8067,4.8069,4.8103,4.8102,4.8056,4.8057,4.8058,4.8058,0,0,0,0,0,0,0,4.8113,4.8114,4.8135,4.8113,4.8109,4.8094,4.8092,4.8113,4.8086,4.808,4.8076,4.8075,4.8065,4.8068,4.8068,4.8102,4.8056,4.8058,4.8059,4.8059,4.8174,4.8177,0,0,0,0,0,0,4.8117,4.8115,4.8135,4.8134,4.8105,4.8096,4.8094,4.8102,4.8086,4.8082,4.8077,4.8073,4.8066,4.8067,4.8068,4.8125,4.8058,4.8059,4.806,4.8172,4.8175,4.8177,0,0,0,0,0,0,4.8117,4.812,4.8136,4.8123,4.8124,4.8099,4.8108,4.8103,4.8106,4.8084,4.8079,4.8085,4.8065,4.8066,4.8094,4.8123,4.806,4.8061,4.817,4.8173,4.8176,4.8241,0,0,0,0,0,0,4.8116,4.812,4.814,4.8124,4.8125,4.8163,4.811,4.8104,4.8108,4.8102,4.809,4.8086,4.8063,4.8092,4.8096,4.8124,4.8062,4.8167,4.8171,4.8175,4.8236,4.8246,4.8254,0,0,0,0,0,4.8115,4.8159,4.8141,4.8144,4.8149,4.8165,4.8166,4.8139,4.8111,4.813,4.8116,4.8086,4.812,4.8096,4.8099,4.8129,4.8165,4.817,4.8175,4.8232,4.8244,4.8254,0,0,0,0,0,0,4.8179,4.8156,4.8136,4.8176,4.8173,4.8155,4.8178,4.8153,4.8158,4.8152,4.8118,4.8116,4.8149,4.8142,4.8115,4.8176,4.8137,4.8143,4.818,4.8191,4.82,4.82,4.8064,0,0,0,0,0,4.8197,4.8212,4.8192,4.8229,4.8228,4.8204,4.821,4.8189,4.8185,4.8183,4.8171,4.8167,4.8177,4.8184,4.8192,4.8235,4.823,4.8257,4.8266,4.8274,4.8279,4.8299,4.8309,4.8194,4.8193,4.8193,0,0,4.8236,4.8225,4.8237,4.8241,4.8236,4.8252,4.8203,4.8222,4.8233,4.8186,4.8211,4.8203,4.8196,4.8232,4.8247,4.8227,4.831,4.828,4.8286,4.8287,4.8305,4.8316,4.8326,4.8197,4.8196,4.8196,0,0,4.8313,4.8308,4.8337,4.8333,4.8326,4.8309,4.8316,4.8302,4.8294,4.8319,4.8284,4.8296,4.8314,4.831,4.831,4.8385,4.8357,4.8389,4.8436,4.8456,4.8465,4.8473,4.8498,4.8507,4.8394,4.8394,4.8394,0,4.8362,4.8384,4.8355,4.8376,4.8378,4.8336,4.8364,4.8362,4.8358,4.836,4.8338,4.8358,4.8351,4.8384,4.8402,4.8405,4.841,4.8389,4.8466,4.8474,4.8481,4.8504,4.8513,4.8398,4.8397,4.8397,4.8397,0,4.8443,4.8459,4.8483,4.8479,4.8484,4.8509,4.8483,4.8491,4.8471,4.8456,4.8481,4.8471,4.8475,4.8482,4.8462,4.8512,4.8499,4.8473,4.8432,4.8496,4.8517,4.8526,4.8403,4.8402,4.8401,4.84,0,0,4.856,4.8539,4.8548,4.8545,4.8534,4.8545,4.8567,4.8571,4.8577,4.8576,4.8592,4.8608,4.8583,4.8583,4.8563,4.8581,4.8637,4.8551,4.855,4.8565,4.8688,4.8707,4.8718,4.8619,4.8621,4.8622,4.8688,0,4.8632,4.8668,4.8642,4.8682,4.8695,4.8655,4.8674,4.8669,4.8655,4.8664,4.8649,4.866,4.8627,4.8626,4.8642,4.8627,4.8661,4.8622,4.8633,4.8633,4.8633,4.8729,4.8749,4.8812,4.8696,4.8698,4.8699,0,4.8721,4.8722,4.8763,4.8747,4.8752,4.8769,4.8769,4.8779,4.8771,4.876,4.876,4.8734,4.8754,4.8716,4.8741,4.8715,4.8718,4.8711,4.8713,4.8711,4.8668,4.8728,4.8831,4.884,4.8712,4.8711,4.871,0,4.8799,4.8811,4.8837,4.8836,4.8818,4.8831,4.8825,4.8815,4.8818,4.8819,4.882,4.8823,4.8824,4.8826,4.8801,4.8776,4.8829,4.8789,4.8819,4.8819,4.883,4.883,4.8934,4.8836,4.8836,4.8836,4.8836,0,4.8881,4.8907,4.8871,4.8887,4.8914,4.8884,4.8912,4.8902,4.8893,4.8905,4.8872,4.8884,4.8851,4.886,4.8841,4.8863,4.8864,4.8855,4.8849,4.8856,4.8857,4.8856,4.8851,4.8838,4.8838,4.8837,4.8837,0,4.8972,4.8949,4.8974,4.8955,4.8951,4.8972,4.8955,4.8969,4.8953,4.8968,4.897,4.8946,4.8953,4.8929,4.8934,4.8921,4.8953,4.8941,4.8955,4.895,4.898,4.8977,4.9086,4.9098,4.8995,4.8996,4.8997,0,4.9025,4.9043,4.9026,4.9032,4.9027,4.9036,4.9039,4.901,4.9014,4.9006,4.902,4.9025,4.9027,4.9041,4.9023,4.9026,4.9012,4.905,4.9013,4.9019,4.901,4.9008,4.9009,4.9058,4.9059,4.906,4.9061,0,4.912,4.9107,4.9112,4.9113,4.9117,4.9117,4.9114,4.912,4.9089,4.9095,4.9102,4.9104,4.9107,4.9112,4.9111,4.9103,4.9076,4.9073,4.908,4.9086,4.9093,4.9087,4.8974,4.907,4.9069,4.9069,4.9068,4.9068,4.9192,4.9206,4.9195,4.9201,4.9196,4.9194,4.9204,4.919,4.9195,4.9195,4.9178,4.9188,4.9179,4.9174,4.9169,4.9176,4.9158,4.9169,4.9171,4.9173,4.9177,4.9093,4.9176,4.9176,4.9175,4.9175,4.9175,0,4.9283,4.9274,4.928,4.9276,4.9281,4.9256,4.9251,4.9256,4.9265,4.9259,4.9261,4.9269,4.9273,4.9255,4.9256,4.9265,4.9253,4.9266,4.9264,4.9263,4.9194,4.9187,4.9276,4.9276,4.9276,4.9276,4.9276,4.9276,4.9331,4.9353,4.9339,4.9357,4.9348,4.9357,4.9356,4.9353,4.9347,4.9357,4.936,4.9348,4.9337,4.9337,4.9339,4.9333,4.9334,4.9352,4.9342,4.9278,4.9268,4.9258,4.9252,4.9353,4.9353,4.941,4.941,4.9411]}]]